Kiana, AK

3:34 PM AKST on December 16, 2017 (GMT -0900)
Baker Memorial

Weather History for PAIK - September, 2013

Change the Weather History Date:

Monday, September 30, 2013

  Actual Average (PASK) Record (PASK)
Temperature  
Mean Temperature 24 °F -  
Max Temperature 30 °F 36 °F 45 °F (2017)
Min Temperature 14 °F 28 °F 23 °F (2013)
Degree Days  
Heating Degree Days 40    
Moisture  
Dew Point 18 °F    
Average Humidity 77    
Maximum Humidity 92    
Minimum Humidity 54    
Precipitation  
Precipitation 0.00 in - - ()
Sea Level Pressure  
Sea Level Pressure 30.13 in    
Wind  
Wind Speed 2 mph (NNW)    
Max Wind Speed 7 mph    
Max Gust Speed -    
Visibility 10 miles    
Events      
Averages and records for this station are not official NWS values.
T = Trace of Precipitation, MM = Missing Value Source: NWS Daily Summary

Daily Weather History Graph

Daily Weather History Graph

Search for Another Location

Airport or City:

Trip Planner

Search our weather history database for the weather conditions in past years. The results will help you decide how hot, cold, wet, or windy it might be!

Date:

Astronomy

Sep. 30, 2013 Rise Set
Actual Time 8:51 AM AKDT 8:09 PM AKDT
Civil Twilight 7:58 AM AKDT 9:02 PM AKDT
Nautical Twilight 6:55 AM AKDT 10:05 PM AKDT
Astronomical Twilight 5:44 AM AKDT 11:15 PM AKDT
Moon 3:05 AM AKDT (9/30) 7:03 PM AKDT (9/30)
Length of Visible Light 13h 03m
Length of Day
11h 17m
Waning Crescent, 18% of the Moon is Illuminated
Sep 30
Waning Crescent
Oct 4
New
Oct 11
First Quarter
Oct 18
Full
Oct 26
Last Quarter

Hourly Weather History & Observations

Time (AKDT) Temp. Windchill Dew Point Humidity Pressure Visibility Wind Dir Wind Speed Gust Speed Precip Events Conditions
12:01 AM 23.0 °F - 19.0 °F 85% 30.05 in 10.0 mi Calm Calm - N/A   Clear
1:01 AM 21.9 °F - 18.0 °F 85% 30.06 in 10.0 mi Calm Calm - N/A   Clear
2:01 AM 21.9 °F - 19.0 °F 89% 30.07 in 10.0 mi Calm Calm - N/A   Clear
3:01 AM 18.0 °F 9.8 °F 15.1 °F 88% 30.07 in 10.0 mi NNW 5.8 mph - N/A   Clear
4:01 AM 17.1 °F 7.6 °F 15.1 °F 92% 30.07 in 10.0 mi NNW 6.9 mph - N/A   Clear
5:01 AM 16.0 °F - 14.0 °F 92% 30.09 in 10.0 mi Calm Calm - N/A   Clear
6:01 AM 15.1 °F - 12.0 °F 88% 30.09 in 10.0 mi Calm Calm - N/A   Clear
7:01 AM 14.0 °F - 10.9 °F 88% 30.10 in 10.0 mi Calm Calm - N/A   Clear
8:01 AM 14.0 °F 6.5 °F 10.9 °F 88% 30.11 in 10.0 mi NW 4.6 mph - N/A   Clear
9:01 AM 14.0 °F 6.5 °F 10.9 °F 88% 30.12 in 10.0 mi North 4.6 mph - N/A   Clear
10:01 AM 15.1 °F 7.7 °F 12.0 °F 88% 30.12 in 10.0 mi NNW 4.6 mph - N/A   Clear
11:01 AM 15.1 °F - 12.9 °F 91% 30.14 in 10.0 mi Calm Calm - N/A   Scattered Clouds
12:01 PM 23.0 °F 18.4 °F 19.9 °F 88% 30.15 in 10.0 mi Variable 3.5 mph - N/A   Overcast
1:01 PM 26.1 °F 21.9 °F 23.0 °F 88% 30.16 in 10.0 mi NNW 3.5 mph - N/A   Overcast
2:01 PM 28.9 °F 23.9 °F 24.1 °F 82% 30.16 in 10.0 mi NNW 4.6 mph - N/A   Overcast
3:01 PM 34.0 °F 28.8 °F 21.0 °F 59% 30.16 in 10.0 mi North 5.8 mph - N/A   Overcast
4:01 PM 34.0 °F 28.8 °F 19.9 °F 56% 30.16 in 10.0 mi NW 5.8 mph - N/A   Overcast
5:01 PM 35.1 °F 30.1 °F 19.9 °F 54% 30.16 in 10.0 mi NW 5.8 mph - N/A   Overcast
6:01 PM 35.1 °F 29.3 °F 19.9 °F 54% 30.16 in 10.0 mi NW 6.9 mph - N/A   Overcast
7:01 PM 34.0 °F 28.0 °F 19.9 °F 56% 30.17 in 10.0 mi NW 6.9 mph - N/A   Overcast
8:01 PM 33.1 °F 26.9 °F 21.0 °F 61% 30.17 in 10.0 mi NW 6.9 mph - N/A   Overcast
9:01 PM 33.1 °F - 21.0 °F 61% 30.17 in 10.0 mi Calm Calm - N/A   Overcast
10:01 PM 32.0 °F - 21.0 °F 64% 30.17 in 10.0 mi Calm Calm - N/A   Overcast
11:01 PM 33.1 °F 28.7 °F 19.9 °F 59% 30.18 in 10.0 mi Variable 4.6 mph - N/A   Overcast